EW8326 Weather Reports


time (UTC)temp
C
wind
direction
speed
KPH
gust
KPH
rain 1hr
cm
rain 24hr
cm
rain mn
cm
humidity
%
barometer
mb
20260505213101 2 321 9.7 12.9 0.00 0.00 0.00 84 1006.3
20260505212200 2 333 9.7 12.9 0.00 0.00 0.00 84 1006.3
20260505211302 2 352 9.7 12.9 0.00 0.00 0.00 84 1006.3
20260505210400 2 322 8.0 12.9 0.00 0.00 0.00 84 1006.3
20260505205502 3 276 4.8 8.0 0.00 0.00 0.00 84 1006.3
20260505204600 3 299 4.8 9.7 0.00 0.00 0.00 84 1006.1
20260505202801 3 285 6.4 12.9 0.00 0.00 0.00 84 1006.1
20260505201901 3 292 6.4 12.9 0.00 0.00 0.00 84 1006.0
20260505201000 3 321 8.0 14.5 0.00 0.00 0.00 84 1005.9
20260505200100 4 321 6.4 11.3 0.00 0.00 0.00 84 1005.9
20260505194302 4 280 3.2 3.2 0.00 0.00 0.00 84 1005.8
20260505193400 5 284 4.8 9.7 0.00 0.00 0.00 84 1005.6
20260505192501 5 297 4.8 11.3 0.00 0.00 0.00 84 1005.6
20260505191602 5 293 11.3 19.3 0.00 0.00 0.00 84 1005.5
20260505190700 5 274 6.4 11.3 0.00 0.00 0.00 84 1005.5
20260505185801 6 323 8.0 12.9 0.00 0.00 0.00 84 1005.4
20260505184000 6 321 8.0 12.9 0.00 0.00 0.00 84 1005.2
20260505183102 7 338 8.0 17.7 0.00 0.00 0.00 84 1005.1
20260505182200 7 216 6.4 14.5 0.00 0.00 0.00 84 1005.0
20260505181301 7 335 8.0 11.3 0.00 0.00 0.00 84 1004.9
20260505180402 7 298 6.4 8.0 0.00 0.00 0.00 84 1005.0
20260505175500 7 340 6.4 11.3 0.00 0.00 0.00 84 1005.0
20260505174601 7 301 4.8 8.0 0.00 0.00 0.00 84 1004.9
20260505173700 7 337 4.8 8.0 0.00 0.03 0.00 84 1004.8
20260505172801 7 333 6.4 14.5 0.00 0.03 0.00 84 1004.9
20260505171901 7 317 9.7 14.5 0.00 0.03 0.00 84 1004.9
20260505171002 8 308 9.7 17.7 0.00 0.03 0.00 84 1005.0
20260505170101 8 332 9.7 16.1 0.00 0.03 0.00 84 1004.6
20260505165202 8 273 6.4 16.1 0.00 0.03 0.00 84 1004.8
20260505164301 8 315 6.4 12.9 0.00 0.03 0.00 84 1004.8
20260505163401 8 276 6.4 14.5 0.00 0.03 0.00 84 1004.8
20260505161600 8 304 9.7 12.9 0.00 0.03 0.00 84 1004.7
20260505160700 9 325 6.4 12.9 0.00 0.03 0.00 84 1004.7
20260505153100 10 311 11.3 16.1 0.00 0.03 0.00 84 1004.6
20260505152200 10 306 8.0 12.9 0.00 0.03 0.00 84 1004.7
20260505150400 9 263 8.0 16.1 0.00 0.03 0.00 84 1004.4
20260505124901 9 319 14.5 25.7 0.00 0.03 0.00 84 1004.6
20260505124000 9 340 11.3 17.7 0.00 0.03 0.00 84 1004.5
20260505123101 9 316 11.3 14.5 0.00 0.03 0.00 84 1004.6
20260505122200 9 305 11.3 20.9 0.00 0.03 0.00 84 1004.7
20260505121300 8 269 11.3 16.1 0.00 0.03 0.00 84 1004.5
20260505120400 9 233 9.7 11.3 0.00 0.03 0.00 84 1004.6
20260505115500 8 328 11.3 27.4 0.00 0.03 0.00 84 1004.5
20260505114602 8 344 14.5 27.4 0.00 0.03 0.00 84 1004.4
20260505113700 10 214 9.7 16.1 0.00 0.03 0.00 84 1004.5
20260505112800 8 290 11.3 27.4 0.00 0.03 0.00 84 1004.6
20260505111900 8 348 17.7 27.4 0.00 0.03 0.00 84 1004.7
20260505100700 8 284 8.0 14.5 0.00 0.03 0.00 84 1004.6
20260505095800 8 303 11.3 17.7 0.00 0.03 0.00 84 1004.5
20260505094901 8 249 9.7 17.7 0.00 0.03 0.00 84 1004.8
20260505094000 7 262 11.3 17.7 0.00 0.03 0.00 84 1004.6
20260505093100 8 288 6.4 11.3 0.00 0.03 0.00 84 1004.5
20260505092201 7 251 9.7 12.9 0.00 0.03 0.00 84 1004.5
20260505090400 7 339 9.7 16.1 0.00 0.03 0.00 84 1004.6
20260505085500 6 341 8.0 14.5 0.00 0.03 0.00 84 1004.7
20260505084602 6 295 12.9 27.4 0.00 0.03 0.00 84 1004.6
20260505083700 6 320 11.3 22.5 0.00 0.03 0.00 84 1004.5
20260505081900 5 310 9.7 14.5 0.00 0.03 0.00 84 1004.3
20260505081002 5 351 8.0 8.0 0.00 0.03 0.00 84 1004.6
20260505075201 5 318 8.0 14.5 0.00 0.03 0.00 84 1004.5
20260505074300 4 334 11.3 16.1 0.00 0.03 0.00 84 1004.3
20260505073400 3 345 14.5 24.1 0.00 0.03 0.00 84 1004.3
20260505072500 3 315 12.9 19.3 0.00 0.03 0.00 84 1004.3
20260505071600 3 332 17.7 24.1 0.00 0.03 0.00 84 1004.2
20260505070700 3 331 14.5 27.4 0.00 0.03 0.00 84 1004.1
20260505064900 2 324 11.3 14.5 0.00 0.03 0.00 84 1004.2
20260505064000 2 328 16.1 22.5 0.00 0.03 0.00 84 1004.0
20260505062200 1 313 12.9 17.7 0.00 0.03 0.00 84 1003.9
20260505061300 1 270 9.7 11.3 0.00 0.03 0.00 84 1004.0
20260505055502 1 353 16.1 27.4 0.00 0.03 0.00 84 1003.9
20260505054600 1 293 9.7 17.7 0.00 0.03 0.00 84 1003.9
20260505053700 1 259 14.5 20.9 0.00 0.03 0.00 84 1003.9
20260505052800 1 307 11.3 20.9 0.00 0.03 0.00 84 1003.9
20260505051901 0 303 12.9 19.3 0.00 0.03 0.00 84 1003.9
20260505051000 0 280 12.9 24.1 0.00 0.03 0.00 84 1003.8
20260505041600 0 331 8.0 11.3 0.00 0.03 0.00 84 1003.5
20260505040700 0 147 9.7 9.7 0.00 0.03 0.00 84 1003.6
20260505035800 0 341 9.7 11.3 0.00 0.03 0.00 84 1003.3
20260505034900 0 349 12.9 20.9 0.00 0.03 0.00 84 1003.5
20260505034000 0 323 8.0 12.9 0.00 0.03 0.00 84 1003.3
20260505033102 0 332 8.0 11.3 0.00 0.03 0.00 84 1003.1
20260505031301 0 311 3.2 8.0 0.00 0.03 0.00 84 1003.3
20260505030400 0 319 4.8 14.5 0.00 0.03 0.00 84 1003.1
20260505025500 0 242 3.2 9.7 0.00 0.03 0.00 84 1003.1
20260505024600 0 341 8.0 11.3 0.00 0.03 0.00 84 1003.0
20260505022800 0 220 3.2 6.4 0.00 0.03 0.00 84 1003.0
20260505021900 0 316 8.0 12.9 0.00 0.03 0.00 84 1003.1
20260505021000 0 220 11.3 19.3 0.00 0.03 0.00 84 1002.9
20260505020100 1 288 9.7 17.7 0.00 0.03 0.00 84 1002.9
20260505015201 1 313 12.9 17.7 0.00 0.03 0.00 84 1002.8
20260505014300 1 305 14.5 20.9 0.00 0.03 0.00 84 1002.6
20260505013401 1 312 14.5 24.1 0.00 0.03 0.00 84 1002.6
20260505011600 1 312 11.3 24.1 0.00 0.03 0.00 84 1002.4
20260505010702 1 236 14.5 24.1 0.00 0.03 0.00 84 1002.3
20260505005800 1 317 12.9 16.1 0.00 0.03 0.00 84 1002.3
20260505003100 1 305 9.7 16.1 0.00 0.03 0.00 84 1002.4
20260505001300 1 257 17.7 29.0 0.00 0.03 0.00 84 1002.3
20260505000400 1 281 16.1 20.9 0.00 0.03 0.00 84 1002.4
20260504235500 2 313 16.1 33.8 0.00 0.03 0.00 84 1002.2
20260504234600 2 333 17.7 27.4 0.00 0.03 0.00 84 1002.2
20260504233702 2 303 17.7 27.4 0.00 0.03 0.00 84 1002.2
20260504231000 2 233 14.5 24.1 0.00 0.03 0.00 84 1002.4
20260504230100 2 274 14.5 24.1 0.00 0.03 0.00 84 1002.3
20260504225200 2 336 16.1 22.5 0.00 0.03 0.00 84 1002.5
20260504224302 2 342 11.3 22.5 0.00 0.03 0.00 84 1002.2
20260504223400 2 350 8.0 12.9 0.00 0.03 0.00 84 1002.2
20260504222500 3 306 11.3 17.7 0.00 0.03 0.00 84 1002.3
20260504221600 3 329 11.3 19.3 0.00 0.03 0.00 84 1002.3
20260504220700 3 353 9.7 27.4 0.00 0.03 0.00 84 1002.4
20260504215800 3 338 12.9 27.4 0.00 0.03 0.03 84 1002.4